Weather History for PAHN - August, 2014

Change the Weather History Date:

Sunday, August 10, 2014

  Actual Average Record
Temperature  
Mean Temperature 56 °F -  
Max Temperature 60 °F 63 °F 84 °F (2005)
Min Temperature 52 °F 50 °F 43 °F (1978)
Degree Days  
Heating Degree Days 9    
Growing Degree Days 6 (Base 50)    
Moisture  
Dew Point 54 °F    
Average Humidity 96    
Maximum Humidity 100    
Minimum Humidity 93    
Precipitation  
Precipitation 1.06 in - - ()
Sea Level Pressure  
Sea Level Pressure 29.88 in    
Wind  
Wind Speed 4 mph (ESE)    
Max Wind Speed 14 mph    
Max Gust Speed 18 mph    
Visibility 4 miles    
Events Rain    
Averages and records for this station are not official NWS values.
T = Trace of Precipitation, MM = Missing Value Source: NWS Daily Summary

Daily Weather History Graph

Daily Weather History Graph

Search for Another Location

Airport or City:

Trip Planner

Search our weather history database for the weather conditions in past years. The results will help you decide how hot, cold, wet, or windy it might be!

Date:

Astronomy

Aug. 10, 2014 Rise Set
Actual Time 5:08 AM AKDT 9:04 PM AKDT
Civil Twilight 4:16 AM AKDT 9:55 PM AKDT
Nautical Twilight 2:56 AM AKDT 11:13 PM AKDT
Astronomical Twilight 1:39 AM AKDT 12:34 AM AKDT
Moon 8:31 PM AKDT (8/10) 5:25 AM AKDT (8/10)
Length of Visible Light 17h 39m
Length of Day
15h 55m
Full, 100% of the Moon is Illuminated
Aug 10
Full
Aug 17
Last Quarter
Aug 25
New
Sep 2
First Quarter
Sep 8
Full

Hourly Weather History & Observations

Time (AKDT) Temp. Dew Point Humidity Pressure Visibility Wind Dir Wind Speed Gust Speed Precip Events Conditions
12:14 AM 54.0 °F 53.1 °F 97% 29.87 in 3.0 mi NW 3.5 mph - 0.01 in Rain Light Rain
12:24 AM 54.0 °F 53.1 °F 97% 29.87 in 3.0 mi Calm Calm - 0.01 in Rain Light Rain
12:54 AM 54.0 °F 53.1 °F 97% 29.88 in 4.0 mi WSW 4.6 mph - 0.03 in Rain Light Rain
1:54 AM 54.0 °F 53.1 °F 97% 29.88 in 4.0 mi Variable 3.5 mph - 0.03 in Rain Light Rain
2:09 AM 54.0 °F 53.1 °F 97% 29.87 in 4.0 mi Calm Calm - 0.00 in Rain Light Rain
2:20 AM 53.1 °F 53.1 °F 100% 29.87 in 4.0 mi Calm Calm - 0.01 in Rain Light Rain
2:54 AM 53.1 °F 53.1 °F 100% 29.88 in 4.0 mi Calm Calm - 0.04 in Rain Light Rain
3:18 AM 53.1 °F 53.1 °F 100% 29.86 in 2.0 mi Calm Calm - 0.02 in Rain Light Rain
3:29 AM 53.1 °F 53.1 °F 100% 29.86 in 3.0 mi Calm Calm - 0.03 in Rain Light Rain
3:44 AM 53.1 °F 52.0 °F 96% 29.86 in 3.0 mi Calm Calm - 0.04 in Rain Light Rain
3:54 AM 53.1 °F 52.0 °F 96% 29.86 in 4.0 mi Calm Calm - 0.05 in Rain Light Rain
4:21 AM 53.1 °F 52.0 °F 96% 29.85 in 4.0 mi Calm Calm - 0.02 in Rain Light Rain
4:52 AM 53.6 °F 51.8 °F 94% 29.85 in 5.0 mi Calm Calm - 0.05 in Rain Light Rain
4:54 AM 53.1 °F 52.0 °F 96% 29.86 in 5.0 mi Calm Calm - 0.05 in Rain Light Rain
5:54 AM 53.1 °F 52.0 °F 96% 29.86 in 4.0 mi Variable 3.5 mph - 0.08 in Rain Rain
6:02 AM 52.0 °F 51.1 °F 97% 29.85 in 1.8 mi Calm Calm - 0.01 in Rain Rain
6:05 AM 52.0 °F 51.1 °F 97% 29.85 in 2.5 mi Calm Calm - 0.02 in Rain Rain
6:13 AM 52.0 °F 51.1 °F 97% 29.85 in 4.0 mi Calm Calm - 0.04 in Rain Rain
6:20 AM 53.1 °F 52.0 °F 96% 29.84 in 5.0 mi Calm Calm - 0.05 in Rain Rain
6:30 AM 53.1 °F 52.0 °F 96% 29.84 in 6.0 mi Calm Calm - 0.07 in Rain Rain
6:54 AM 53.1 °F 52.0 °F 96% 29.86 in 2.5 mi West 3.5 mph - 0.09 in Rain Rain
7:06 AM 53.1 °F 52.0 °F 96% 29.85 in 1.8 mi Calm Calm - 0.01 in Rain Light Rain
7:10 AM 53.1 °F 52.0 °F 96% 29.85 in 3.0 mi Calm Calm - 0.02 in Rain Light Rain
7:25 AM 53.1 °F 52.0 °F 96% 29.84 in 3.0 mi Calm Calm - 0.04 in Rain Rain
7:54 AM 54.0 °F 53.1 °F 97% 29.85 in 5.0 mi Calm Calm - 0.07 in Rain Light Rain
8:15 AM 53.1 °F 53.1 °F 100% 29.84 in 2.0 mi Calm Calm - 0.04 in Rain Rain
8:29 AM 53.1 °F 52.0 °F 96% 29.85 in 4.0 mi West 4.6 mph - 0.06 in Rain Light Rain
8:54 AM 54.0 °F 53.1 °F 97% 29.86 in 8.0 mi Calm Calm - 0.08 in Rain Light Rain
9:46 AM 54.0 °F 53.1 °F 97% 29.85 in 2.5 mi Calm Calm - 0.06 in Rain Rain
9:54 AM 54.0 °F 53.1 °F 97% 29.86 in 2.0 mi Calm Calm - 0.08 in Rain Rain
10:01 AM 54.0 °F 53.1 °F 97% 29.85 in 3.0 mi Calm Calm - 0.01 in Rain Rain
10:45 AM 54.0 °F 53.1 °F 97% 29.86 in 2.5 mi Calm Calm - 0.05 in Rain Rain
10:54 AM 54.0 °F 53.1 °F 97% 29.87 in 4.0 mi Calm Calm - 0.06 in Rain Light Rain
11:23 AM 55.0 °F 54.0 °F 96% 29.87 in 2.0 mi ESE 8.1 mph - 0.01 in Rain Light Rain
11:54 AM 55.0 °F 54.0 °F 96% 29.88 in 2.0 mi SE 11.5 mph - 0.03 in Rain Light Rain
12:44 PM 55.9 °F 55.0 °F 97% 29.88 in 3.0 mi ESE 6.9 mph - 0.02 in Rain Light Rain
12:54 PM 55.9 °F 55.0 °F 97% 29.89 in 4.0 mi ESE 10.4 mph - 0.02 in Rain Light Rain
1:14 PM 55.9 °F 55.0 °F 97% 29.89 in 2.5 mi ESE 11.5 mph - 0.01 in Rain Light Rain
1:24 PM 55.9 °F 55.0 °F 97% 29.89 in 3.0 mi ESE 9.2 mph - 0.02 in Rain Light Rain
1:54 PM 55.9 °F 55.0 °F 97% 29.90 in 5.0 mi ESE 9.2 mph - 0.03 in Rain Light Rain
2:13 PM 55.9 °F 55.0 °F 97% 29.89 in 7.0 mi SE 11.5 mph - 0.00 in Rain Light Rain
2:22 PM 55.9 °F 55.0 °F 97% 29.89 in 6.0 mi SE 12.7 mph - 0.00 in   Overcast
2:51 PM 55.4 °F 55.4 °F 100% 29.90 in 2.5 mi ESE 6.9 mph - 0.01 in Rain Light Rain
2:54 PM 55.9 °F 55.0 °F 97% 29.91 in 2.5 mi ESE 6.9 mph - 0.01 in Rain Light Rain
3:21 PM 55.9 °F 55.0 °F 97% 29.90 in 4.0 mi ESE 9.2 mph - 0.01 in Rain Light Rain
3:47 PM 55.9 °F 55.0 °F 97% 29.90 in 5.0 mi ESE 6.9 mph - 0.02 in Rain Light Rain
3:54 PM 55.9 °F 55.0 °F 97% 29.91 in 5.0 mi ESE 10.4 mph - 0.03 in Rain Light Rain
4:54 PM 57.9 °F 57.0 °F 97% 29.91 in 5.0 mi East 5.8 mph - 0.01 in Rain Light Rain
5:12 PM 57.0 °F 55.9 °F 96% 29.89 in 5.0 mi SE 11.5 mph 16.1 mph 0.00 in   Overcast
5:54 PM 59.0 °F 57.0 °F 93% 29.90 in 5.0 mi SE 10.4 mph - 0.02 in Rain Light Rain
6:41 PM 55.9 °F 55.0 °F 97% 29.90 in 2.5 mi East 8.1 mph - 0.03 in Rain Rain
6:50 PM 57.2 °F 55.4 °F 94% 29.89 in 4.0 mi ESE 8.1 mph - 0.05 in Rain Rain
6:54 PM 57.0 °F 55.9 °F 96% 29.90 in 4.0 mi ESE 9.2 mph - 0.06 in Rain Rain
7:07 PM 59.0 °F 57.0 °F 93% 29.89 in 7.0 mi ESE 8.1 mph - 0.01 in Rain Light Rain
7:28 PM 60.1 °F 57.9 °F 93% 29.89 in 2.5 mi ESE 8.1 mph 18.4 mph 0.04 in Rain Rain
7:35 PM 57.9 °F 55.9 °F 93% 29.89 in 3.0 mi SE 12.7 mph - 0.06 in Rain Rain
7:54 PM 57.0 °F 55.9 °F 96% 29.90 in 5.0 mi ESE 10.4 mph - 0.08 in Rain Light Rain
8:25 PM 57.9 °F 55.9 °F 93% 29.91 in 2.5 mi ESE 13.8 mph 18.4 mph 0.03 in Rain Light Rain
8:32 PM 55.9 °F 55.0 °F 97% 29.91 in 2.0 mi ESE 11.5 mph - 0.03 in Rain Light Rain
8:44 PM 55.9 °F 55.0 °F 97% 29.91 in 3.0 mi ESE 10.4 mph - 0.04 in Rain Light Rain
8:54 PM 55.9 °F 55.0 °F 97% 29.92 in 4.0 mi ESE 12.7 mph 17.3 mph 0.05 in Rain Light Rain
9:02 PM 55.9 °F 55.0 °F 97% 29.92 in 4.0 mi ESE 12.7 mph - 0.01 in Rain Light Rain
9:22 PM 57.0 °F 55.9 °F 96% 29.93 in 3.0 mi East 10.4 mph - 0.02 in Rain Light Rain
9:30 PM 57.0 °F 55.9 °F 96% 29.93 in 2.5 mi ESE 11.5 mph - 0.02 in Rain Light Rain
9:54 PM 57.0 °F 55.9 °F 96% 29.94 in 3.0 mi ESE 9.2 mph - 0.04 in Rain Light Rain
10:01 PM 57.9 °F 57.0 °F 97% 29.93 in 2.5 mi ESE 10.4 mph - 0.00 in Rain Light Rain
10:09 PM 57.9 °F 57.0 °F 97% 29.93 in 3.0 mi SE 12.7 mph - 0.00 in Rain Light Rain
10:19 PM 57.0 °F 55.9 °F 96% 29.93 in 3.0 mi East 8.1 mph - 0.01 in Rain Light Rain
10:33 PM 57.0 °F 55.9 °F 96% 29.94 in 3.0 mi ESE 9.2 mph - 0.01 in Rain Light Rain
10:47 PM 57.9 °F 57.0 °F 97% 29.94 in 4.0 mi East 10.4 mph - 0.02 in   Overcast
10:54 PM 59.0 °F 57.0 °F 93% 29.95 in 6.0 mi ENE 11.5 mph 18.4 mph 0.02 in   Overcast
11:54 PM 59.0 °F 57.0 °F 93% 29.97 in 10.0 mi East 9.2 mph - N/A   Overcast